N1YZ Weather Reports


Display with metric or nautical units.
time (UTC)temp
F
wind
direction
speed
MPH
gust
MPH
rain 1hr
in
rain 24hr
in
rain mn
in
humidity
%
barometer
mb
20260905220225 91 7 0.0 1.0 0.00 0.00 0.00 70 1030.5
20260905215724 91 3 0.0 0.0 0.00 0.00 0.00 69 1030.5
20260905215220 91 355 1.0 1.0 0.00 0.00 0.00 68 1030.3
20260905214715 92 21 0.0 0.0 0.00 0.00 0.00 67 1030.3
20260905214211 92 12 0.0 0.0 0.00 0.00 0.00 65 1030.3
20260905213706 93 359 0.0 0.0 0.00 0.00 0.00 63 1030.5
20260905213202 93 8 0.0 0.0 0.00 0.00 0.00 61 1030.3
20260905212657 93 2 0.0 0.0 0.00 0.00 0.00 60 1030.5
20260905212156 93 25 0.0 0.0 0.00 0.00 0.00 61 1030.4
20260905211650 94 26 0.0 0.0 0.00 0.00 0.00 59 1030.6
20260905211146 94 3 0.0 0.0 0.00 0.00 0.00 57 1030.5
20260905210642 94 12 0.0 0.0 0.00 0.00 0.00 61 1030.7
20260905210137 95 356 1.0 1.0 0.00 0.00 0.00 59 1030.6
20260905205636 95 2 0.0 0.0 0.00 0.00 0.00 59 1030.8
20260905205131 95 337 3.0 3.0 0.00 0.00 0.00 60 1030.8
20260905204629 95 9 0.0 0.0 0.00 0.00 0.00 59 1030.6
20260905204125 94 83 1.0 1.0 0.00 0.00 0.00 59 1030.5
20260905203625 94 22 0.0 0.0 0.00 0.00 0.00 61 1030.7
20260905203121 94 3 1.0 1.0 0.00 0.00 0.00 62 1030.8
20260905202616 93 7 0.0 0.0 0.00 0.00 0.00 62 1030.7
20260905202111 94 3 0.0 0.0 0.00 0.00 0.00 62 1031.1
20260905201607 94 349 0.0 0.0 0.00 0.00 0.00 59 1031.1
20260905201106 94 353 0.0 0.0 0.00 0.00 0.00 60 1031.1
20260905200602 94 19 0.0 0.0 0.00 0.00 0.00 61 1031.1
20260905200056 94 6 1.0 2.0 0.00 0.00 0.00 62 1031.0
20260905195550 95 7 1.0 2.0 0.00 0.00 0.00 59 1030.8
20260905195046 96 221 0.0 1.0 0.00 0.00 0.00 54 1031.0
20260905194545 96 352 0.0 0.0 0.00 0.00 0.00 50 1031.1
20260905194045 95 57 0.0 0.0 0.00 0.00 0.00 49 1031.0
20260905193540 96 0 0.0 0.0 0.00 0.00 0.00 54 1031.0
20260905193035 96 27 0.0 0.0 0.00 0.00 0.00 51 1031.2
20260905192530 96 139 1.0 1.0 0.00 0.00 0.00 50 1031.5
20260905192027 96 190 2.0 2.0 0.00 0.00 0.00 50 1031.6
20260905191524 96 50 0.0 1.0 0.00 0.00 0.00 50 1031.7
20260905191024 95 33 1.0 1.0 0.00 0.00 0.00 52 1031.8
20260905190522 94 351 0.0 0.0 0.00 0.00 0.00 55 1031.7
20260905190016 94 26 0.0 0.0 0.00 0.00 0.00 57 1031.7
20260905185510 95 338 2.0 2.0 0.00 0.00 0.00 55 1031.6
20260905185009 96 120 1.0 1.0 0.00 0.00 0.00 51 1031.9
20260905184504 96 18 0.0 0.0 0.00 0.00 0.00 52 1032.1
20260905184003 96 6 1.0 1.0 0.00 0.00 0.00 54 1032.1
20260905183503 97 295 0.0 0.0 0.00 0.00 0.00 55 1032.4
20260905182957 96 192 1.0 1.0 0.00 0.00 0.00 51 1032.2
20260905182457 95 61 1.0 1.0 0.00 0.00 0.00 54 1032.4
20260905181952 96 161 1.0 1.0 0.00 0.00 0.00 53 1032.5
20260905181447 96 2 0.0 0.0 0.00 0.00 0.00 53 1032.5
20260905180946 97 193 2.0 3.0 0.00 0.00 0.00 50 1032.5
20260905180441 96 10 0.0 0.0 0.00 0.00 0.00 53 1032.8
20260905175936 96 78 1.0 1.0 0.00 0.00 0.00 51 1032.9
20260905175435 96 29 0.0 0.0 0.00 0.00 0.00 51 1032.7
20260905174931 97 353 1.0 2.0 0.00 0.00 0.00 53 1032.8
20260905174427 96 343 1.0 1.0 0.00 0.00 0.00 53 1033.0
20260905173922 94 358 0.0 0.0 0.00 0.00 0.00 52 1032.9
20260905173418 95 18 0.0 1.0 0.00 0.00 0.00 56 1033.2
20260905172913 94 66 1.0 1.0 0.00 0.00 0.00 57 1033.3
20260905172411 94 14 0.0 0.0 0.00 0.00 0.00 57 1032.9
20260905171907 93 22 0.0 0.0 0.00 0.00 0.00 60 1033.2
20260905171404 93 27 0.0 1.0 0.00 0.00 0.00 58 1033.3
20260905170900 93 11 1.0 1.0 0.00 0.00 0.00 58 1033.3
20260905170355 93 23 0.0 1.0 0.00 0.00 0.00 62 1033.6
20260905165854 93 7 1.0 1.0 0.00 0.00 0.00 58 1033.6
20260905165350 92 8 0.0 0.0 0.00 0.00 0.00 61 1033.5
20260905164844 92 83 0.0 1.0 0.00 0.00 0.00 58 1033.7
20260905164339 93 25 0.0 0.0 0.00 0.00 0.00 59 1033.9
20260905163835 93 352 0.0 0.0 0.00 0.00 0.00 61 1034.0
20260905163331 93 19 0.0 0.0 0.00 0.00 0.00 58 1033.8
20260905162826 93 282 0.0 0.0 0.00 0.00 0.00 60 1034.0
20260905162321 92 23 0.0 0.0 0.00 0.00 0.00 61 1033.8
20260905161815 92 11 0.0 0.0 0.00 0.00 0.00 65 1033.8
20260905161315 92 23 0.0 0.0 0.00 0.00 0.00 62 1034.1
20260905160813 91 0 0.0 0.0 0.00 0.00 0.00 65 1034.0
20260905160308 92 356 0.0 1.0 0.00 0.00 0.00 62 1034.0
20260905155802 92 76 1.0 2.0 0.00 0.00 0.00 62 1034.1
20260905155301 92 292 0.0 0.0 0.00 0.00 0.00 65 1034.0
20260905154754 91 7 0.0 0.0 0.00 0.00 0.00 65 1034.1
20260905154251 91 29 0.0 0.0 0.00 0.00 0.00 65 1033.8
20260905153746 91 356 1.0 1.0 0.00 0.00 0.00 67 1034.0
20260905153242 91 8 0.0 0.0 0.00 0.00 0.00 66 1033.9
20260905152736 91 21 0.0 0.0 0.00 0.00 0.00 66 1034.0
20260905152230 90 203 0.0 0.0 0.00 0.00 0.00 66 1033.9
20260905151725 89 17 0.0 0.0 0.00 0.00 0.00 68 1034.0
20260905151221 89 12 0.0 0.0 0.00 0.00 0.00 70 1034.0
20260905150716 89 14 0.0 0.0 0.00 0.00 0.00 71 1034.1
20260905150215 89 20 0.0 0.0 0.00 0.00 0.00 73 1034.0
20260905145713 89 358 0.0 0.0 0.00 0.00 0.00 72 1034.0
20260905145208 89 23 0.0 0.0 0.00 0.00 0.00 71 1034.0
20260905144706 90 351 0.0 0.0 0.00 0.00 0.00 72 1034.2
20260905144206 91 352 0.0 0.0 0.00 0.00 0.00 70 1033.9
20260905143705 92 345 0.0 0.0 0.00 0.00 0.00 68 1034.2
20260905143200 92 352 0.0 0.0 0.00 0.00 0.00 69 1034.2
20260905142659 92 353 0.0 0.0 0.00 0.00 0.00 70 1034.3
20260905142154 91 352 0.0 0.0 0.00 0.00 0.00 69 1034.4
20260905141649 88 352 0.0 0.0 0.00 0.00 0.00 75 1034.3
20260905141145 86 8 0.0 0.0 0.00 0.00 0.00 77 1034.3
20260905140640 84 9 0.0 0.0 0.00 0.00 0.00 80 1034.5
20260905140138 83 7 0.0 0.0 0.00 0.00 0.00 84 1034.3
20260905135629 82 351 0.0 0.0 0.00 0.00 0.00 85 1034.4
20260905135124 82 2 0.0 0.0 0.00 0.00 0.00 86 1034.3
20260905134618 81 339 0.0 0.0 0.00 0.00 0.00 87 1034.4
20260905134116 81 313 0.0 0.0 0.00 0.00 0.00 87 1034.5
20260905133612 80 304 0.0 0.0 0.00 0.00 0.00 89 1034.3
20260905133107 79 342 0.0 0.0 0.00 0.00 0.00 90 1034.4
20260905132607 79 358 0.0 0.0 0.00 0.00 0.00 90 1034.3
20260905132101 79 64 0.0 0.0 0.00 0.00 0.00 91 1033.9
20260905131557 78 34 0.0 0.0 0.00 0.00 0.00 91 1034.2
20260905131052 78 25 0.0 0.0 0.00 0.00 0.00 92 1034.5
20260905130550 78 317 0.0 0.0 0.00 0.00 0.00 92 1034.5
20260905130046 78 302 0.0 0.0 0.00 0.00 0.00 93 1034.5
20260905125545 77 327 0.0 0.0 0.00 0.00 0.00 94 1034.5
20260905125041 76 11 0.0 0.0 0.00 0.00 0.00 95 1034.6
20260905124537 76 48 0.0 0.0 0.00 0.00 0.00 96 1034.3
20260905124033 76 6 0.0 0.0 0.00 0.00 0.00 97 1034.5
20260905123529 75 5 0.0 0.0 0.00 0.00 0.00 97 1034.6
20260905123026 75 11 0.0 0.0 0.00 0.00 0.00 97 1034.6
20260905122525 75 11 0.0 0.0 0.00 0.00 0.00 97 1034.4
20260905122020 75 11 0.0 0.0 0.00 0.00 0.00 97 1034.6
20260905121515 74 47 0.0 0.0 0.00 0.00 0.00 97 1034.3
20260905121015 74 47 0.0 0.0 0.00 0.00 0.00 97 1034.3
20260905120509 74 34 0.0 0.0 0.00 0.00 0.00 97 1034.4
20260905120005 74 24 0.0 0.0 0.00 0.00 0.00 98 1034.4
20260905115503 74 24 0.0 0.0 0.00 0.00 0.00 98 1034.1
20260905114958 74 22 0.0 0.0 0.00 0.00 0.00 98 1034.1
20260905114458 74 22 0.0 0.0 0.00 0.00 0.00 98 1034.2
20260905113956 74 22 0.0 0.0 0.00 0.00 0.00 98 1034.0
20260905113452 74 22 0.0 0.0 0.00 0.00 0.00 98 1034.2
20260905112947 74 23 0.0 0.0 0.00 0.00 0.00 98 1034.1
20260905112443 74 23 0.0 0.0 0.00 0.00 0.00 98 1034.0
20260905111938 74 23 0.0 0.0 0.00 0.00 0.00 97 1033.8
20260905111432 74 23 0.0 0.0 0.00 0.00 0.00 97 1033.8
20260905110926 74 23 0.0 0.0 0.00 0.00 0.00 97 1033.9
20260905110420 74 20 0.0 0.0 0.00 0.00 0.00 97 1034.0
20260905105914 74 1 0.0 0.0 0.00 0.00 0.00 97 1033.9
20260905105409 74 1 0.0 0.0 0.00 0.00 0.00 97 1034.0
20260905104908 74 1 0.0 0.0 0.00 0.00 0.00 97 1033.8
20260905104405 74 1 0.0 0.0 0.00 0.00 0.00 97 1033.8
20260905103904 74 1 0.0 0.0 0.00 0.00 0.00 97 1033.6
20260905103400 74 1 0.0 0.0 0.00 0.00 0.00 97 1033.7
20260905102856 74 1 0.0 0.0 0.00 0.00 0.00 97 1033.7
20260905102352 74 1 0.0 0.0 0.00 0.00 0.00 97 1033.8
20260905101847 74 1 0.0 0.0 0.00 0.00 0.00 96 1033.7
20260905101345 75 1 0.0 0.0 0.00 0.00 0.00 96 1034.0
20260905100839 75 1 0.0 0.0 0.00 0.00 0.00 96 1033.8
20260905100336 75 1 0.0 0.0 0.00 0.00 0.00 96 1034.2
20260905095834 75 1 0.0 0.0 0.00 0.00 0.00 96 1033.8
20260905095329 75 1 0.0 0.0 0.00 0.00 0.00 96 1033.8
20260905094824 75 0 0.0 0.0 0.00 0.00 0.00 96 1033.6
20260905094320 75 0 0.0 0.0 0.00 0.00 0.00 95 1033.7
20260905093818 75 0 0.0 0.0 0.00 0.00 0.00 95 1033.6
20260905093314 75 0 0.0 0.0 0.00 0.00 0.00 95 1033.6
20260905092809 75 0 0.0 0.0 0.00 0.00 0.00 95 1033.6
20260905092306 75 0 0.0 0.0 0.00 0.00 0.00 95 1033.5
20260905091759 75 0 0.0 0.0 0.00 0.00 0.00 95 1033.8
20260905091259 75 0 0.0 0.0 0.00 0.00 0.00 95 1033.9
20260905090757 75 0 0.0 0.0 0.00 0.00 0.00 94 1033.9
20260905090254 75 0 0.0 0.0 0.00 0.00 0.00 94 1033.7
20260905085753 75 0 0.0 0.0 0.00 0.00 0.00 94 1033.7
20260905085252 75 0 0.0 0.0 0.00 0.00 0.00 94 1033.7
20260905084747 75 0 0.0 0.0 0.00 0.00 0.00 94 1033.6
20260905084242 75 0 0.0 0.0 0.00 0.00 0.00 93 1033.6
20260905083737 75 359 0.0 0.0 0.00 0.00 0.00 93 1033.6
20260905083232 76 359 0.0 0.0 0.00 0.00 0.00 93 1033.6
20260905082728 76 359 0.0 0.0 0.00 0.00 0.00 93 1033.4
20260905082224 75 359 0.0 0.0 0.00 0.00 0.00 93 1033.3
20260905081718 76 359 0.0 0.0 0.00 0.00 0.00 93 1033.5
20260905081213 76 359 0.0 0.0 0.00 0.00 0.00 93 1033.4
20260905080712 76 359 0.0 0.0 0.00 0.00 0.00 93 1033.6
20260905080207 76 359 0.0 0.0 0.00 0.00 0.00 92 1033.4
20260905075706 76 359 0.0 0.0 0.00 0.00 0.00 92 1033.3
20260905075205 76 359 0.0 0.0 0.00 0.00 0.00 92 1033.5
20260905074704 76 359 0.0 0.0 0.00 0.00 0.00 91 1033.4
20260905074201 77 359 0.0 0.0 0.00 0.00 0.00 91 1033.3
20260905073656 77 358 0.0 0.0 0.00 0.00 0.00 91 1033.4
20260905073152 77 359 0.0 0.0 0.00 0.00 0.00 90 1033.4
20260905072651 77 359 0.0 0.0 0.00 0.00 0.00 90 1033.3
20260905072146 77 359 0.0 0.0 0.00 0.00 0.00 90 1033.1
20260905071643 77 359 0.0 0.0 0.00 0.00 0.00 89 1033.1
20260905071138 77 359 0.0 0.0 0.00 0.00 0.00 89 1033.2
20260905070633 77 359 0.0 0.0 0.00 0.00 0.00 89 1033.2
20260905070129 77 359 0.0 0.0 0.00 0.00 0.00 88 1033.3
20260905065627 77 359 0.0 0.0 0.00 0.00 0.00 88 1033.3
20260905065122 77 358 0.0 0.0 0.00 0.00 0.00 88 1033.1
20260905064617 78 358 0.0 0.0 0.00 0.00 0.00 88 1033.2
20260905064113 78 358 0.0 0.0 0.00 0.00 0.00 88 1033.2
20260905063611 78 358 0.0 0.0 0.00 0.00 0.00 88 1033.4
20260905063107 78 358 0.0 0.0 0.00 0.00 0.00 88 1033.3
20260905062602 78 358 0.0 0.0 0.00 0.00 0.00 88 1033.5
20260905062056 78 358 0.0 0.0 0.00 0.00 0.00 87 1033.6
20260905061552 78 358 0.0 0.0 0.00 0.00 0.00 87 1033.3
20260905061051 78 358 0.0 0.0 0.00 0.00 0.00 86 1033.3
20260905060547 78 358 0.0 0.0 0.00 0.00 0.00 86 1033.4
20260905060043 78 358 0.0 0.0 0.00 0.00 0.00 85 1033.7
20260905055541 79 358 0.0 0.0 0.00 0.00 0.00 85 1033.6
20260905055036 79 358 0.0 0.0 0.00 0.00 0.00 85 1033.5
20260905054532 79 358 0.0 0.0 0.00 0.00 0.00 85 1033.6
20260905054027 78 0 0.0 0.0 0.00 0.00 0.00 85 1033.3
20260905053527 79 1 0.0 0.0 0.00 0.00 0.00 85 1033.5
20260905053023 79 1 0.0 0.0 0.00 0.00 0.00 85 1033.2
20260905052521 79 1 0.0 0.0 0.00 0.00 0.00 85 1033.5
20260905052016 79 1 0.0 0.0 0.00 0.00 0.00 85 1033.3
20260905051512 79 2 0.0 0.0 0.00 0.00 0.00 85 1033.4
20260905051003 79 2 0.0 0.0 0.00 0.00 0.00 86 1033.5
20260905050458 79 2 0.0 0.0 0.00 0.00 0.00 86 1033.6
20260905045954 79 2 0.0 0.0 0.00 0.00 0.00 86 1033.6
20260905045449 79 2 0.0 0.0 0.00 0.00 0.00 84 1033.3
20260905044944 79 1 0.0 0.0 0.00 0.00 0.00 84 1033.6
20260905044438 79 2 0.0 0.0 0.00 0.00 0.00 86 1033.7
20260905043933 80 2 0.0 0.0 0.00 0.00 0.00 85 1033.8
20260905043432 80 1 0.0 0.0 0.00 0.00 0.00 85 1033.6
20260905042927 80 20 0.0 0.0 0.00 0.00 0.00 86 1033.7
20260905042422 80 20 0.0 0.0 0.00 0.00 0.00 85 1033.6
20260905041917 80 20 0.0 0.0 0.00 0.00 0.00 84 1033.6
20260905041413 80 20 0.0 0.0 0.00 0.00 0.00 84 1033.5
20260905040912 80 20 0.0 0.0 0.00 0.00 0.00 84 1033.7
20260905040407 80 31 0.0 0.0 0.00 0.00 0.00 83 1033.7
20260905035906 80 31 0.0 0.0 0.00 0.00 0.00 83 1033.7
20260905035402 81 33 0.0 0.0 0.00 0.00 0.00 82 1033.6
20260905034858 82 33 0.0 0.0 0.00 0.00 0.00 81 1033.5
20260905034354 82 30 0.0 0.0 0.00 0.00 0.00 80 1033.5
20260905033852 82 11 0.0 0.0 0.00 0.00 0.00 79 1033.7
20260905033348 82 351 0.0 0.0 0.00 0.00 0.00 79 1033.4
20260905032847 82 1 0.0 0.0 0.00 0.00 0.00 79 1033.4
20260905032342 82 7 0.0 0.0 0.00 0.00 0.00 79 1033.7
20260905031837 82 7 0.0 0.0 0.00 0.00 0.00 78 1033.6
20260905031333 83 7 0.0 0.0 0.00 0.00 0.00 78 1033.5
20260905030828 84 7 0.0 0.0 0.00 0.00 0.00 76 1033.4
20260905030324 84 309 0.0 0.0 0.00 0.00 0.00 76 1033.7
20260905025823 84 5 0.0 0.0 0.00 0.00 0.00 75 1033.8
20260905025318 84 12 0.0 0.0 0.00 0.00 0.00 74 1033.9
20260905024815 85 12 0.0 0.0 0.00 0.00 0.00 73 1034.0
20260905024310 85 358 0.0 0.0 0.00 0.00 0.00 72 1034.0
20260905023805 85 5 0.0 0.0 0.00 0.00 0.00 72 1034.1
20260905023300 85 352 0.0 0.0 0.00 0.00 0.00 72 1034.3
20260905022759 85 47 0.0 0.0 0.00 0.00 0.00 72 1034.3
20260905022255 85 342 0.0 0.0 0.00 0.00 0.00 71 1033.9
20260905021755 85 349 0.0 0.0 0.00 0.00 0.00 71 1034.1
20260905021250 85 349 0.0 0.0 0.00 0.00 0.00 71 1034.1
20260905020744 86 349 0.0 0.0 0.00 0.00 0.00 70 1033.7
20260905020239 86 354 0.0 0.0 0.00 0.00 0.00 71 1033.7
20260905015738 85 355 0.0 0.0 0.00 0.00 0.00 71 1033.8
20260905015233 85 355 0.0 0.0 0.00 0.00 0.00 71 1033.8
20260905014732 85 356 0.0 0.0 0.00 0.00 0.00 71 1033.8
20260905014227 85 355 0.0 0.0 0.00 0.00 0.00 71 1033.6
20260905013723 85 355 0.0 0.0 0.00 0.00 0.00 70 1033.7
20260905013219 86 355 0.0 0.0 0.00 0.00 0.00 69 1033.6
20260905012714 86 355 0.0 0.0 0.00 0.00 0.00 68 1033.8
20260905012210 86 355 0.0 0.0 0.00 0.00 0.00 68 1033.5
20260905011706 86 355 0.0 0.0 0.00 0.00 0.00 67 1033.5
20260905011156 87 355 0.0 0.0 0.00 0.00 0.00 67 1033.4
20260905010656 87 355 0.0 0.0 0.00 0.00 0.00 66 1033.4
20260905010151 87 356 0.0 0.0 0.00 0.00 0.00 66 1033.3
20260905005648 88 356 0.0 0.0 0.00 0.00 0.00 65 1033.3
20260905005143 88 355 0.0 0.0 0.00 0.00 0.00 64 1033.2
20260905004637 88 355 0.0 0.0 0.00 0.00 0.00 64 1033.2
20260905004132 88 352 0.0 0.0 0.00 0.00 0.00 64 1033.3
20260905003628 89 6 0.0 0.0 0.00 0.00 0.00 63 1033.3
20260905003124 89 6 0.0 0.0 0.00 0.00 0.00 63 1033.5
20260905002619 89 358 0.0 0.0 0.00 0.00 0.00 62 1033.3
20260905002114 89 3 0.0 0.0 0.00 0.00 0.00 62 1033.3
20260905001609 89 4 0.0 0.0 0.00 0.00 0.00 61 1033.5
20260905001109 90 4 0.0 0.0 0.00 0.00 0.00 61 1033.3
20260905000604 90 3 0.0 0.0 0.00 0.00 0.00 60 1033.4
20260905000100 91 18 0.0 0.0 0.00 0.00 0.00 59 1033.3
20260904235600 91 17 0.0 0.0 0.00 0.00 0.00 59 1033.3
20260904235100 91 359 0.0 0.0 0.00 0.00 0.00 59 1033.4
20260904234554 91 353 0.0 0.0 0.00 0.00 0.00 59 1033.3
20260904234050 91 38 0.0 0.0 0.00 0.00 0.00 59 1033.4
20260904233545 91 6 0.0 0.0 0.00 0.00 0.00 59 1033.4
20260904233041 91 1 0.0 0.0 0.00 0.00 0.00 59 1033.5
20260904232538 91 11 0.0 0.0 0.00 0.00 0.00 59 1033.3
20260904232034 91 5 0.0 0.0 0.00 0.00 0.00 59 1033.2
20260904231529 92 23 0.0 0.0 0.00 0.00 0.00 59 1033.0
20260904231024 92 0 0.0 0.0 0.00 0.00 0.00 58 1032.9
20260904230523 92 8 0.0 0.0 0.00 0.00 0.00 58 1032.8
20260904230019 92 11 0.0 0.0 0.00 0.00 0.00 59 1033.0
20260904225517 92 31 0.0 0.0 0.00 0.00 0.00 58 1032.8
20260904225016 92 13 0.0 0.0 0.00 0.00 0.00 58 1032.7
20260904224511 93 23 0.0 0.0 0.00 0.00 0.00 57 1032.8
20260904224011 93 22 0.0 0.0 0.00 0.00 0.00 56 1032.9
20260904223510 93 21 0.0 0.0 0.00 0.00 0.00 56 1032.8
20260904223007 93 16 0.0 0.0 0.00 0.00 0.00 56 1032.9
20260904222502 93 4 0.0 0.0 0.00 0.00 0.00 58 1032.8
20260904221956 93 19 0.0 0.0 0.00 0.00 0.00 57 1032.7
20260904221451 93 172 0.0 0.0 0.00 0.00 0.00 58 1032.6
20260904220946 94 24 0.0 0.0 0.00 0.00 0.00 57 1032.7
20260904220446 94 20 0.0 0.0 0.00 0.00 0.00 55 1032.6